Change the Weather History Date:

Tuesday, February 18, 2014

  Actual Average Record
Temperature  
Mean Temperature 47 °F -  
Max Temperature 64 °F 53 °F 75 °F (2011)
Min Temperature 30 °F 34 °F 6 °F (1958)
Degree Days  
Heating Degree Days 18    
Moisture  
Dew Point 32 °F    
Average Humidity 62    
Maximum Humidity 92    
Minimum Humidity 26    
Precipitation  
Precipitation 0.00 in - - ()
Sea Level Pressure  
Sea Level Pressure 30.16 in    
Wind  
Wind Speed 2 mph (SSW)    
Max Wind Speed 7 mph    
Max Gust Speed -    
Visibility 9 miles    
Events Rain    
Averages and records for this station are not official NWS values.
T = Trace of Precipitation, MM = Missing Value Source: NWS Daily Summary

Daily Weather History Graph

Daily Weather History Graph

Search for Another Location

Airport or City:

Trip Planner

Search our weather history database for the weather conditions in past years. The results will help you decide how hot, cold, wet, or windy it might be!

Date:

Astronomy

Feb. 18, 2014 Rise Set
Actual Time 7:06 AM EST 6:09 PM EST
Civil Twilight 6:41 AM EST 6:35 PM EST
Nautical Twilight 6:11 AM EST 7:05 PM EST
Astronomical Twilight 5:42 AM EST 7:34 PM EST
Moon 9:51 PM EST (2/18) 8:48 AM EST (2/18)
Length of Visible Light 11h 54m
Length of Day
11h 03m
Waning Gibbous, 87% of the Moon is Illuminated
Feb 18
Waning Gibbous
Feb 22
Last Quarter
Mar 1
New
Mar 8
First Quarter
Mar 16
Full

Hourly Weather History & Observations

Time (EST) Temp. Windchill Dew Point Humidity Pressure Visibility Wind Dir Wind Speed Gust Speed Precip Events Conditions
12:04 AM 42.1 °F 40.2 °F 30.0 °F 62% 30.18 in 10.0 mi NW 3.5 mph - N/A   Overcast
12:26 AM 42.1 °F - 30.9 °F 65% 30.17 in 10.0 mi Calm Calm - 0.00 in   Overcast
12:54 AM 42.1 °F 40.2 °F 32.0 °F 67% 30.19 in 10.0 mi North 3.5 mph - 0.00 in Rain Light Rain
1:17 AM 41.0 °F - 34.0 °F 76% 30.19 in 9.0 mi Calm Calm - 0.00 in   Overcast
1:54 AM 41.0 °F 39.0 °F 33.1 °F 73% 30.18 in 9.0 mi SE 3.5 mph - 0.00 in   Overcast
2:20 AM 39.9 °F 36.7 °F 32.0 °F 73% 30.12 in 9.0 mi SSE 4.6 mph - N/A   Partly Cloudy
2:54 AM 37.9 °F - 30.9 °F 76% 30.13 in 9.0 mi Calm Calm - N/A   Clear
3:54 AM 34.0 °F - 30.9 °F 89% 30.13 in 7.0 mi Calm Calm - N/A   Clear
4:54 AM 32.0 °F - 28.9 °F 88% 30.15 in 6.0 mi Calm Calm - N/A   Clear
5:28 AM 30.9 °F - 28.9 °F 92% 30.15 in 5.0 mi Calm Calm - N/A   Mostly Cloudy
5:54 AM 33.1 °F - 30.9 °F 92% 30.17 in 6.0 mi Calm Calm - N/A   Overcast
6:47 AM 33.1 °F - 30.0 °F 89% 30.17 in 7.0 mi Calm Calm - N/A   Scattered Clouds
6:54 AM 33.1 °F - 30.0 °F 89% 30.19 in 7.0 mi Calm Calm - N/A   Partly Cloudy
7:54 AM 33.1 °F - 30.9 °F 92% 30.22 in 4.0 mi Calm Calm - N/A   Clear
8:54 AM 41.0 °F 39.0 °F 33.1 °F 73% 30.24 in 7.0 mi NNE 3.5 mph - N/A   Clear
9:54 AM 48.0 °F - 35.1 °F 61% 30.24 in 9.0 mi Calm Calm - N/A   Clear
10:54 AM 53.1 °F - 33.1 °F 47% 30.23 in 10.0 mi Calm Calm - N/A   Clear
11:54 AM 57.9 °F - 30.0 °F 35% 30.22 in 10.0 mi NNE 4.6 mph - N/A   Clear
12:54 PM 61.0 °F - 28.0 °F 29% 30.20 in 10.0 mi NW 5.8 mph - N/A   Clear
1:54 PM 62.1 °F - 27.0 °F 26% 30.18 in 10.0 mi SW 5.8 mph - N/A   Clear
2:54 PM 63.0 °F - 27.0 °F 26% 30.16 in 10.0 mi Variable 6.9 mph - N/A   Clear
3:54 PM 64.0 °F - 28.9 °F 27% 30.16 in 10.0 mi WSW 6.9 mph - N/A   Clear
4:54 PM 63.0 °F - 33.1 °F 33% 30.15 in 10.0 mi SW 5.8 mph - N/A   Clear
5:54 PM 59.0 °F - 33.1 °F 38% 30.14 in 10.0 mi Calm Calm - N/A   Clear
6:54 PM 53.1 °F - 35.1 °F 50% 30.15 in 10.0 mi Calm Calm - N/A   Clear
7:54 PM 46.0 °F - 34.0 °F 63% 30.14 in 10.0 mi Calm Calm - N/A   Clear
8:54 PM 46.0 °F - 35.1 °F 66% 30.13 in 10.0 mi Calm Calm - N/A   Clear
9:54 PM 46.9 °F - 36.0 °F 66% 30.11 in 10.0 mi South 3.5 mph - N/A   Clear
10:54 PM 55.0 °F - 37.0 °F 51% 30.06 in 10.0 mi South 3.5 mph - N/A   Clear
11:54 PM 54.0 °F - 37.0 °F 53% 30.06 in 10.0 mi SSE 3.5 mph - N/A   Mostly Cloudy